Location: Tallgrass Prairie National Preserve
(38.4367°N, 96.5727°W)
Time: 00:11:28
(UTC-06:00)

Hubble Space Telescope - Visible Passes

Search period start: 16 November 2025 00:00
Search period end: 26 November 2025 00:00
Orbit: 482 x 484 km, 28.5° (Epoch: 15 November)

Date Brightness Start Highest point End Pass type
(mag) Time Alt. Az. Time Alt. Az. Time Alt. Az.
17 Nov 3.3 06:34:20 10° SSW 06:36:16 13° SSE 06:38:12 10° SE visible
18 Nov 3.2 06:05:34 10° SSW 06:07:32 14° SSE 06:09:29 10° SE visible
19 Nov 3.1 05:36:47 10° SSW 05:38:45 14° SSE 05:40:44 10° SE visible
20 Nov 3.0 05:09:31 14° S 05:09:59 14° SSE 05:11:59 10° SE visible
20 Nov 2.9 06:46:37 10° SW 06:49:16 18° S 06:51:55 10° SE visible
21 Nov 3.5 04:42:32 12° SE 04:42:32 12° SE 04:43:14 10° SE visible
21 Nov 2.8 06:17:50 10° SW 06:20:28 18° S 06:23:07 10° SE visible
22 Nov 2.7 05:49:39 13° SW 05:51:39 18° S 05:54:18 10° SE visible
23 Nov 2.6 05:22:32 18° S 05:22:50 18° S 05:25:28 10° SE visible
24 Nov 3.1 04:55:23 15° SSE 04:55:23 15° SSE 04:56:36 10° SE visible
24 Nov 3.1 06:31:43 10° SW 06:33:14 12° SSW 06:34:45 10° S visible
25 Nov 3.0 06:02:54 10° SW 06:04:22 12° SSW 06:05:49 10° S visible
